H1 CPF 2 NER 2024 7 10 9 192 01 glonass116 H2 0907001 9116 36111 2024 7 10 0 0 0 2024 7 13 23 45 0 900 1 1 0 0 0 1 H9 10 0 60501 0.00000 0 13301905.617 6922808.496 -20640542.845 10 0 60501 900.00000 0 10755298.268 7550807.069 -21866665.961 10 0 60501 1800.00000 0 8143230.403 8403568.239 -22668305.603 10 0 60501 2700.00000 0 5534184.716 9472271.180 -23029853.643 10 0 60501 3600.00000 0 2994649.097 10735948.461 -22944236.079 10 0 60501 4500.00000 0 586564.851 12162231.212 -22413053.906 10 0 60501 5400.00000 0 -1635026.824 13708589.622 -21446556.831 10 0 60501 6300.00000 0 -3624042.980 15324017.966 -20063449.977 10 0 60501 7200.00000 0 -5345036.764 16951094.648 -18290536.780 10 0 60501 8100.00000 0 -6774425.731 18528331.853 -16162204.344 10 0 60501 9000.00000 0 -7901220.115 19992716.942 -13719760.526 10 0 60501 9900.00000 0 -8727221.275 21282339.334 -11010635.037 10 0 60501 10800.00000 0 -9266682.755 22338992.600 -8087459.556 10 0 60501 11700.00000 0 -9545449.017 23110642.180 -5007044.488 10 0 60501 12600.00000 0 -9599608.909 23553654.358 -1829272.289 10 0 60501 13500.00000 0 -9473721.624 23634692.047 1384070.846 10 0 60501 14400.00000 0 -9218691.035 23332196.723 4570501.678 10 0 60501 15300.00000 0 -8889379.323 22637393.355 7668060.801 10 0 60501 16200.00000 0 -8542061.930 21554775.276 10616523.168 10 0 60501 17100.00000 0 -8231832.545 20102048.061 13358573.988 10 0 60501 18000.00000 0 -8010068.900 18309534.336 15840926.436 10 0 60501 18900.00000 0 -7922067.347 16219064.274 18015359.067 10 0 60501 19800.00000 0 -8004946.865 13882398.151 19839652.570 10 0 60501 20700.00000 0 -8285911.476 11359246.926 21278407.785 10 0 60501 21600.00000 0 -8780944.693 8714973.504 22303729.421 10 0 60501 22500.00000 0 -9493991.236 6018070.383 22895762.745 10 0 60501 23400.00000 0 -10416660.596 3337518.527 23043073.447 10 0 60501 24300.00000 0 -11528465.052 740136.852 22742863.977 10 0 60501 25200.00000 0 -12797582.338 -1711968.187 22001022.710 10 0 60501 26100.00000 0 -14182111.176 -3963747.785 20832005.455 10 0 60501 27000.00000 0 -15631767.333 -5969254.432 19258551.850 10 0 60501 27900.00000 0 -17089949.480 -7693300.319 17311242.231 10 0 60501 28800.00000 0 -18496088.596 -9112662.849 15027903.475 10 0 60501 29700.00000 0 -19788182.798 -10216788.504 12452875.119 10 0 60501 30600.00000 0 -20905411.609 -11007967.152 9636149.723 10 0 60501 31500.00000 0 -21790720.169 -11500970.926 6632403.856 10 0 60501 32400.00000 0 -22393265.009 -11722174.126 3499938.312 10 0 60501 33300.00000 0 -22670618.649 -11708192.333 299547.914 10 0 60501 34200.00000 0 -22590640.164 -11504098.905 -2906657.098 10 0 60501 35100.00000 0 -22132932.916 -11161294.932 -6056455.264 10 0 60501 36000.00000 0 -21289827.741 -10735123.089 -9088720.207 10 0 60501 36900.00000 0 -20066849.778 -10282326.550 -11944605.474 10 0 60501 37800.00000 0 -18482648.785 -9858460.650 -14568684.909 10 0 60501 38700.00000 0 -16568395.047 -9515366.704 -16910026.437 10 0 60501 39600.00000 0 -14366665.475 -9298814.878 -18923178.534 10 0 60501 40500.00000 0 -11929865.636 -9246415.664 -20569050.533 10 0 60501 41400.00000 0 -9318252.685 -9385888.217 -21815669.996 10 0 60501 42300.00000 0 -6597640.763 -9733758.778 -22638802.816 10 0 60501 43200.00000 0 -3836883.356 -10294544.373 -23022424.282 10 0 60501 44100.00000 0 -1105236.384 -11060456.724 -22959032.220 10 0 60501 45000.00000 0 1530289.268 -12011639.570 -22449796.120 10 0 60501 45900.00000 0 4007476.682 -13116930.305 -21504539.217 10 0 60501 46800.00000 0 6271248.224 -14335114.930 -20141553.484 10 0 60501 47700.00000 0 8275710.433 -15616624.573 -18387250.591 10 0 60501 48600.00000 0 9985814.067 -16905603.170 -16275654.922 10 0 60501 49500.00000 0 11378560.787 -18142260.131 -13847747.809 10 0 60501 50400.00000 0 12443706.668 -19265409.482 -11150675.063 10 0 60501 51300.00000 0 13183933.806 -20215088.804 -8236832.743 10 0 60501 52200.00000 0 13614483.513 -20935147.512 -5162848.612 10 0 60501 53100.00000 0 13762267.293 -21375694.948 -1988479.131 10 0 60501 54000.00000 0 13664493.913 -21495304.410 1224556.291 10 0 60501 54900.00000 0 13366871.415 -21262879.311 4413780.632 10 0 60501 55800.00000 0 12921461.001 -20659101.862 7517179.975 10 0 60501 56700.00000 0 12384274.535 -19677402.302 10474415.114 10 0 60501 57600.00000 0 11812718.253 -18324406.999 13227999.722 10 0 60501 58500.00000 0 11262991.710 -16619845.918 15724421.499 10 0 60501 59400.00000 0 10787552.698 -14595922.723 17915184.092 10 0 60501 60300.00000 0 10432755.856 -12296173.578 19757749.332 10 0 60501 61200.00000 0 10236765.035 -9773862.068 21216361.585 10 0 60501 62100.00000 0 10227827.685 -7089977.085 22262738.521 10 0 60501 63000.00000 0 10422983.982 -4310916.901 22876615.426 10 0 60501 63900.00000 0 10827264.944 -1505955.550 23046133.102 10 0 60501 64800.00000 0 11433413.077 1255403.559 22768062.484 10 0 60501 65700.00000 0 12222137.169 3906077.481 22047862.195 10 0 60501 66600.00000 0 13162890.369 6383947.743 20899568.363 10 0 60501 67500.00000 0 14215138.896 8634193.843 19345519.112 10 0 60501 68400.00000 0 15330068.146 10611320.453 17415919.137 10 0 60501 69300.00000 0 16452654.712 12280795.228 15148252.753 10 0 60501 70200.00000 0 17524017.457 13620230.380 12586556.574 10 0 60501 71100.00000 0 18483949.072 14620060.127 9780565.648 10 0 60501 72000.00000 0 19273521.808 15283687.039 6784749.373 10 0 60501 72900.00000 0 19837657.882 15627092.458 3657255.657 10 0 60501 73800.00000 0 20127556.334 15677928.531 458783.662 10 0 60501 74700.00000 0 20102874.037 15474131.028 -2748593.002 10 0 60501 75600.00000 0 19733568.751 15062112.252 -5902629.763 10 0 60501 76500.00000 0 19001326.143 14494610.773 -8942117.807 10 0 60501 77400.00000 0 17900510.304 13828289.341 -11808070.539 10 0 60501 78300.00000 0 16438596.993 13121182.464 -14444866.646 10 0 60501 79200.00000 0 14636070.503 12430101.545 -16801327.639 10 0 60501 80100.00000 0 12525787.665 11808107.171 -18831709.094 10 0 60501 81000.00000 0 10151834.489 11302155.051 -20496586.604 10 0 60501 81900.00000 0 7567922.133 10951014.784 -21763619.589 10 0 60501 82800.00000 0 4835388.027 10783549.073 -22608178.462 10 0 60501 83700.00000 0 2020884.191 10817425.840 -23013823.305 10 0 60501 84600.00000 0 -806152.217 11058317.598 -22972624.963 10 0 60501 85500.00000 0 -3576142.022 11499622.060 -22485322.374 10 0 60502 0.00000 0 -6222011.809 12122716.157 -21561313.032 10 0 60502 900.00000 0 -8681738.665 12897733.729 -20218475.838 10 0 60502 1800.00000 0 -10900683.380 13784834.003 -18482830.572 10 0 60502 2700.00000 0 -12833620.423 14735909.261 -16388038.285 10 0 60502 3600.00000 0 -14446377.215 15696659.638 -13974752.742 10 0 60502 4500.00000 0 -15717016.207 16608948.368 -11289834.462 10 0 60502 5400.00000 0 -16636510.670 17413338.322 -8385442.154 10 0 60502 6300.00000 0 -17208886.431 18051702.781 -5318018.950 10 0 60502 7200.00000 0 -17450824.207 18469799.838 -2147193.097 10 0 60502 8100.00000 0 -17390739.987 18619701.093 1065385.204 10 0 60502 9000.00000 0 -17067383.008 18461971.212 4257247.742 10 0 60502 9900.00000 0 -16528011.372 17967505.341 7366328.847 10 0 60502 10800.00000 0 -15826223.270 17118945.775 10332178.035 10 0 60502 11700.00000 0 -15019536.405 15911617.138 13097140.424 10 0 60502 12600.00000 0 -14166818.776 14353939.755 15607481.265 10 0 60502 13500.00000 0 -13325680.099 12467303.037 17814432.299 10 0 60502 14400.00000 0 -12549934.591 10285403.499 19675139.415 10 0 60502 15300.00000 0 -11887242.479 7853074.615 21153493.247 10 0 60502 16200.00000 0 -11377029.785 5224656.956 22220826.926 10 0 60502 17100.00000 0 -11048773.832 2461976.186 22856467.931 10 0 60502 18000.00000 0 -10920726.342 -367987.281 23048133.967 10 0 60502 18900.00000 0 -10999127.342 -3195640.512 22792165.806 10 0 60502 19800.00000 0 -11277942.443 -5951427.164 22093593.176 10 0 60502 20700.00000 0 -11739134.021 -8568474.151 20966032.858 10 0 60502 21600.00000 0 -12353454.511 -10985126.830 19431421.251 10 0 60502 22500.00000 0 -13081728.143 -13147268.406 17519586.662 10 0 60502 23400.00000 0 -13876567.089 -15010328.195 15267669.576 10 0 60502 24300.00000 0 -14684449.713 -16540896.366 12719401.923 10 0 60502 25200.00000 0 -15448073.513 -17717879.040 9924259.068 10 0 60502 26100.00000 0 -16108883.683 -18533146.751 6936500.697 10 0 60502 27000.00000 0 -16609670.752 -18991650.302 3814119.006 10 0 60502 27900.00000 0 -16897127.783 -19111000.282 617714.416 10 0 60502 28800.00000 0 -16924259.135 -18920528.861 -2590679.346 10 0 60502 29700.00000 0 -16652538.921 -18459874.170 -5748797.984 10 0 60502 30600.00000 0 -16053727.773 -17777147.544 -8795353.769 10 0 60502 31500.00000 0 -15111270.803 -16926761.360 -11671223.509 10 0 60502 32400.00000 0 -13821217.112 -15967009.282 -14320594.243 10 0 60502 33300.00000 0 -12192621.402 -14957501.123 -16692044.494 10 0 60502 34200.00000 0 -10247409.667 -13956560.306 -18739540.140 10 0 60502 35100.00000 0 -8019713.481 -13018693.474 -20423325.885 10 0 60502 36000.00000 0 -5554699.570 -12192238.629 -21710695.401 10 0 60502 36900.00000 0 -2906942.138 -11517290.397 -22576625.480 10 0 60502 37800.00000 0 -138404.504 -11023989.437 -23004262.245 10 0 60502 38700.00000 0 2683887.259 -10731247.690 -22985250.203 10 0 60502 39600.00000 0 5490383.183 -10645962.983 -22519897.779 10 0 60502 40500.00000 0 8211656.401 -10762755.993 -21617176.013 10 0 60502 41400.00000 0 10781049.299 -11064240.858 -20294550.049 10 0 60502 42300.00000 0 13137209.663 -11521818.294 -18577646.174 10 0 60502 43200.00000 0 15226412.018 -12096958.234 -16499760.194 10 0 60502 44100.00000 0 17004568.047 -12742918.276 -14101215.994 10 0 60502 45000.00000 0 18438842.614 -13406825.803 -11428586.073 10 0 60502 45900.00000 0 19508808.287 -14032035.991 -8533788.721 10 0 60502 46800.00000 0 20207090.359 -14560666.076 -5473079.045 10 0 60502 47700.00000 0 20539475.739 -14936198.392 -2305953.466 10 0 60502 48600.00000 0 20524481.623 -15106041.563 906010.763 10 0 60502 49500.00000 0 20192402.712 -15023940.717 4100357.974 10 0 60502 50400.00000 0 19583877.840 -14652133.839 7214974.340 10 0 60502 51300.00000 0 18748037.288 -13963162.041 10189301.444 10 0 60502 52200.00000 0 17740309.790 -12941256.231 12965518.839 10 0 60502 53100.00000 0 16619982.654 -11583240.588 15489671.888 10 0 60502 54000.00000 0 15447618.646 -9898913.873 17712722.517 10 0 60502 54900.00000 0 14282439.150 -7910891.604 19591502.270 10 0 60502 55800.00000 0 13179784.237 -5653915.006 21089549.163 10 0 60502 56700.00000 0 12188756.651 -3173654.971 22177812.419 10 0 60502 57600.00000 0 11350148.648 -525060.381 22835211.889 10 0 60502 58500.00000 0 10694738.401 2229680.884 23049041.918 10 0 60502 59400.00000 0 10242026.901 5023483.944 22815212.451 10 0 60502 60300.00000 0 9999467.616 7786915.182 22138323.293 10 0 60502 61200.00000 0 9962220.448 10450841.558 21031570.530 10 0 60502 62100.00000 0 10113439.505 12949071.697 19516487.213 10 0 60502 63000.00000 0 10425081.882 15220879.915 17622523.415 10 0 60502 63900.00000 0 10859202.865 17213309.124 15386473.771 10 0 60502 64800.00000 0 11369682.622 18883157.811 12851763.366 10 0 60502 65700.00000 0 11904311.360 20198569.292 10067605.603 10 0 60502 66600.00000 0 12407144.882 21140157.916 7088048.089 10 0 60502 67500.00000 0 12821031.018 21701626.152 3970924.876 10 0 60502 68400.00000 0 13090200.222 21889847.661 776735.187 10 0 60502 69300.00000 0 13162810.746 21724413.741 -2432529.573 10 0 60502 70200.00000 0 12993340.667 21236662.918 -5594587.754 10 0 60502 71100.00000 0 12544725.430 20468235.181 -8648074.939 10 0 60502 72000.00000 0 11790150.192 19469212.148 -11533733.412 10 0 60502 72900.00000 0 10714420.709 18295921.743 -14195560.455 10 0 60502 73800.00000 0 9314854.207 17008499.891 -16581893.264 10 0 60502 74700.00000 0 7601651.693 15668311.789 -18646409.483 10 0 60502 75600.00000 0 5597734.956 14335341.114 -20349024.248 10 0 60502 76500.00000 0 3338053.737 13065656.542 -21656666.657 10 0 60502 77400.00000 0 868390.647 11909061.661 -22543920.918 10 0 60502 78300.00000 0 -1756287.700 10907026.490 -22993520.095 10 0 60502 79200.00000 0 -4473866.187 10090986.899 -22996683.062 10 0 60502 80100.00000 0 -7217419.901 9481082.959 -22553288.201 10 0 60502 81000.00000 0 -9917760.086 9085388.819 -21671880.354 10 0 60502 81900.00000 0 -12506082.633 8899666.234 -20369510.532 10 0 60502 82800.00000 0 -14916609.851 8907651.989 -18671410.997 10 0 60502 83700.00000 0 -17089116.363 9081867.108 -16610511.342 10 0 60502 84600.00000 0 -18971234.413 9384913.819 -14226804.255 10 0 60502 85500.00000 0 -20520442.801 9771205.626 -11566572.639 10 0 60503 0.00000 0 -21705656.467 10189057.374 -8681492.828 10 0 60503 900.00000 0 -22508350.951 10583047.075 -5627629.426 10 0 60503 1800.00000 0 -22923173.245 10896548.645 -2464345.186 10 0 60503 2700.00000 0 -22958015.716 11074328.593 746857.787 10 0 60503 3600.00000 0 -22633548.672 11065095.390 3943538.693 10 0 60503 4500.00000 0 -21982232.418 10823892.882 7063537.984 10 0 60503 5400.00000 0 -21046850.915 10314235.381 10046191.869 10 0 60503 6300.00000 0 -19878629.521 9509893.028 12833516.984 10 0 60503 7200.00000 0 -18535016.911 8396250.927 15371341.501 10 0 60503 8100.00000 0 -17077225.306 6971183.654 17610360.219 10 0 60503 9000.00000 0 -15567633.182 5245407.345 19507092.927 10 0 60503 9900.00000 0 -14067160.108 3242293.671 21024727.430 10 0 60503 10800.00000 0 -12632724.204 997152.725 22133831.194 10 0 60503 11700.00000 0 -11314888.816 -1443985.979 22812918.270 10 0 60503 12600.00000 0 -10155796.737 -4026044.103 23048861.097 10 0 60503 13500.00000 0 -9187477.886 -6686947.741 22837139.842 10 0 60503 14400.00000 0 -8430600.464 -9359978.520 22181925.005 10 0 60503 15300.00000 0 -7893716.917 -11976325.424 21095992.158 10 0 60503 16200.00000 0 -7573035.193 -14467731.964 19600470.745 10 0 60503 17100.00000 0 -7452723.826 -16769129.434 17724431.913 10 0 60503 18000.00000 0 -7505737.060 -18821147.456 15504323.330 10 0 60503 18900.00000 0 -7695124.473 -20572398.147 12983261.745 10 0 60503 19800.00000 0 -7975769.283 -21981439.532 10210196.758 10 0 60503 20700.00000 0 -8296481.607 -23018337.044 7238961.771 10 0 60503 21600.00000 0 -8602357.934 -23665758.648 4127230.317 10 0 60503 22500.00000 0 -8837306.920 -23919558.497 935397.841 10 0 60503 23400.00000 0 -8946634.507 -23788825.277 -2274589.324 10 0 60503 24300.00000 0 -8879578.839 -23295393.890 -5440435.084 10 0 60503 25200.00000 0 -8591687.506 -22472841.479 -8500701.402 10 0 60503 26100.00000 0 -8046936.241 -21365010.313 -11395999.195 10 0 60503 27000.00000 0 -7219499.064 -20024119.996 -14070139.215 10 0 60503 27900.00000 0 -6095094.462 -18508548.291 -16471220.537 10 0 60503 28800.00000 0 -4671849.993 -16880373.806 -18552635.663 10 0 60503 29700.00000 0 -2960647.877 -15202783.578 -20273973.012 10 0 60503 30600.00000 0 -984935.793 -13537453.942 -21601799.626 10 0 60503 31500.00000 0 1219990.565 -11942014.082 -22510309.239 10 0 60503 32400.00000 0 3608204.720 -10467697.946 -22981823.466 10 0 60503 33300.00000 0 6124817.157 -9157282.269 -23007136.646 10 0 60503 34200.00000 0 8708025.561 -8043396.472 -22585697.692 10 0 60503 35100.00000 0 11291463.569 -7147274.620 -21725625.321 10 0 60503 36000.00000 0 13806751.534 -6478001.229 -20443556.010 10 0 60503 36900.00000 0 16186144.130 -6032282.111 -18764327.122 10 0 60503 37800.00000 0 18365165.329 -5794749.537 -16720500.691 10 0 60503 38700.00000 0 20285121.507 -5738788.558 -14351736.386 10 0 60503 39600.00000 0 21895388.049 -5827849.479 -11704025.202 10 0 60503 40500.00000 0 23155374.075 -6017190.811 -8828798.199 10 0 60503 41400.00000 0 24036083.017 -6255978.760 -5781927.301 10 0 60503 42300.00000 0 24521203.594 -6489654.028 -2622637.528 10 0 60503 43200.00000 0 24607685.325 -6662465.132 587647.966 10 0 60503 44100.00000 0 24305774.460 -6720060.201 3786507.143 10 0 60503 45000.00000 0 23638508.973 -6612026.553 6911738.587 10 0 60503 45900.00000 0 22640694.208 -6294269.479 9902576.785 10 0 60503 46800.00000 0 21357402.777 -5731128.471 12700878.810 10 0 60503 47700.00000 0 19842062.402 -4897140.294 15252258.602 10 0 60503 48600.00000 0 18154212.748 -3778373.390 17507146.345 10 0 60503 49500.00000 0 16357026.102 -2373276.345 19421752.109 10 0 60503 50400.00000 0 14514696.438 -693003.763 20958915.050 10 0 60503 51300.00000 0 12689806.611 1238794.959 22088821.952 10 0 60503 52200.00000 0 10940783.940 3386715.952 22789581.663 10 0 60503 53100.00000 0 9319550.407 5704839.995 23047644.838 10 0 60503 54000.00000 0 7869465.100 8138419.442 22858061.513 10 0 60503 54900.00000 0 6623644.055 10625943.287 22224572.071 10 0 60503 55800.00000 0 5603726.649 13101495.028 21159530.322 10 0 60503 56700.00000 0 4819138.884 15497305.842 19683660.451 10 0 60503 57600.00000 0 4266883.083 17746397.518 17825652.683 10 0 60503 58500.00000 0 3931861.540 19785205.752 15621605.439 10 0 60503 59400.00000 0 3787719.327 21556075.189 13114324.620 10 0 60503 60300.00000 0 3798169.800 23009522.820 10352493.346 10 0 60503 61200.00000 0 3918746.112 24106175.811 7389728.013 10 0 60503 62100.00000 0 4098904.228 24818303.350 4283538.764 10 0 60503 63000.00000 0 4284388.107 25130878.880 1094214.394 10 0 60503 63900.00000 0 4419756.714 25042128.700 -2116346.681 10 0 60503 64800.00000 0 4450965.660 24563544.300 -5285836.657 10 0 60503 65700.00000 0 4327893.965 23719358.173 -8352746.393 10 0 60503 66600.00000 0 4006708.725 22545505.559 -11257557.742 10 0 60503 67500.00000 0 3451967.312 21088115.682 -13943896.947 10 0 60503 68400.00000 0 2638367.747 19401595.742 -16359626.692 10 0 60503 69300.00000 0 1552072.687 17546388.112 -18457855.810 10 0 60503 70200.00000 0 191550.347 15586494.413 -20197847.235 10 0 60503 71100.00000 0 -1432104.132 13586869.807 -21545806.959 10 0 60503 72000.00000 0 -3295381.587 11610796.164 -22475539.033 10 0 60503 72900.00000 0 -5363098.544 9717343.203 -22968954.213 10 0 60503 73800.00000 0 -7589634.339 7959023.103 -23016422.655 10 0 60503 74700.00000 0 -9920615.489 6379735.877 -22616963.869 10 0 60503 75600.00000 0 -12294978.505 5013090.610 -21778270.185 10 0 60503 76500.00000 0 -14647326.541 3881172.052 -20516562.915 10 0 60503 77400.00000 0 -16910482.711 2993803.515 -18856283.518 10 0 60503 78300.00000 0 -19018134.518 2348336.350 -16829625.101 10 0 60503 79200.00000 0 -20907459.689 1929974.267 -14475912.653 10 0 60503 80100.00000 0 -22521624.005 1712618.381 -11840843.344 10 0 60503 81000.00000 0 -23812046.798 1660196.866 -8975601.150 10 0 60503 81900.00000 0 -24740339.087 1728422.608 -5935862.599 10 0 60503 82800.00000 0 -25279832.838 1866903.998 -2780712.954 10 0 60503 83700.00000 0 -25416636.849 2021518.907 428505.925 10 0 60503 84600.00000 0 -25150174.639 2136950.475 3629393.163 10 0 60503 85500.00000 0 -24493181.557 2159276.448 6759707.938 10 0 60504 0.00000 0 -23471161.351 2038501.318 9758585.282 10 0 60504 900.00000 0 -22121324.620 1730922.941 12567725.791 10 0 60504 1800.00000 0 -20491055.541 1201232.588 15132531.426 10 0 60504 2700.00000 0 -18635969.917 424258.417 17403170.192 10 0 60504 3600.00000 0 -16617647.774 -613722.042 19335544.704 10 0 60504 4500.00000 0 -14501135.503 -1914156.657 20892147.481 10 0 60504 5400.00000 0 -12352322.469 -3465916.206 22042786.317 10 0 60504 6300.00000 0 -10235301.821 -5245528.128 22765166.177 10 0 60504 7200.00000 0 -8209825.570 -7217937.386 23045316.857 10 0 60504 8100.00000 0 -6328959.623 -9337763.296 22877858.781 10 0 60504 9000.00000 0 -4637035.788 -11551000.497 22266102.349 10 0 60504 9900.00000 0 -3167985.168 -13797093.695 21221979.351 10 0 60504 10800.00000 0 -1944121.165 -16011300.303 19765808.114 10 0 60504 11700.00000 0 -975421.565 -18127243.135 17925896.991 10 0 60504 12600.00000 0 -259338.250 -20079547.249 15737993.887 10 0 60504 13500.00000 0 218858.930 -21806451.547 13244592.282 10 0 60504 14400.00000 0 485219.867 -23252286.600 10494106.977 10 0 60504 15300.00000 0 575770.917 -24369715.578 7539935.290 10 0 60504 16200.00000 0 534748.183 -25121644.954 4439421.725 10 0 60504 17100.00000 0 412482.656 -25482725.262 1252746.017 10 0 60504 18000.00000 0 263027.157 -25440379.253 -1958243.845 10 0 60504 18900.00000 0 141625.858 -24995314.491 -5131230.944 10 0 60504 19800.00000 0 102133.810 -24161498.975 -8204637.749 10 0 60504 20700.00000 0 194495.965 -22965600.894 -11118819.814 10 0 60504 21600.00000 0 462392.667 -21445915.919 -13817221.642 10 0 60504 22500.00000 0 941151.509 -19650826.967 -16247472.315 10 0 60504 23400.00000 0 1656014.266 -17636860.615 -18362399.678 10 0 60504 24300.00000 0 2620832.678 -15466421.255 -20120943.671 10 0 60504 25200.00000 0 3837248.838 -13205297.438 -21488951.479 10 0 60504 26100.00000 0 5294395.693 -10920043.914 -22439839.360 10 0 60504 27000.00000 0 6969131.448 -8675348.044 -22955108.693 10 0 60504 27900.00000 0 8826799.411 -6531489.715 -23024706.506 10 0 60504 28800.00000 0 10822482.944 -4541999.875 -22647223.533 10 0 60504 29700.00000 0 12902704.480 -2751614.519 -21829925.914 10 0 60504 30600.00000 0 15007499.057 -1194608.673 -20588619.577 10 0 60504 31500.00000 0 17072776.900 106420.831 -18947349.439 10 0 60504 32400.00000 0 19032877.389 1141273.674 -16937938.633 10 0 60504 33300.00000 0 20823208.362 1912336.095 -14599375.954 10 0 60504 34200.00000 0 22382860.711 2434235.354 -11977062.796 10 0 60504 35100.00000 0 23657088.915 2732973.827 -9121933.626 10 0 60504 36000.00000 0 24599553.362 2844579.887 -6089466.726 10 0 60504 36900.00000 0 25174229.969 2813333.192 -2938604.381 10 0 60504 37800.00000 0 25356906.423 2689640.193 269396.317 10 0 60504 38700.00000 0 25136201.633 2527650.569 3472159.295 10 0 60504 39600.00000 0 24514065.058 2382716.481 6607407.966 10 0 60504 40500.00000 0 23505734.567 2308803.236 9614181.959 10 0 60504 41400.00000 0 22139154.454 2355962.061 12434027.634 10 0 60504 42300.00000 0 20453878.042 2567972.973 15012138.545 10 0 60504 43200.00000 0 18499501.130 2980258.425 17298423.190 10 0 60504 44100.00000 0 16333692.208 3618156.739 19248479.026 10 0 60504 45000.00000 0 14019902.205 4495628.956 20824453.817 10 0 60504 45900.00000 0 11624849.774 5614454.283 21995777.833 10 0 60504 46800.00000 0 9215887.151 6963948.596 22739753.175 10 0 60504 47700.00000 0 6858356.356 8521218.372 23041989.333 10 0 60504 48600.00000 0 4613045.476 10251939.986 22896677.177 10 0 60504 49500.00000 0 2533850.252 12111632.277 22306696.661 10 0 60504 50400.00000 0 665737.405 14047369.718 21283556.588 10 0 60504 51300.00000 0 -956906.680 15999865.145 19847167.942 10 0 60504 52200.00000 0 -2311474.491 17905835.623 18025455.275 10 0 60504 53100.00000 0 -3387834.590 19700553.084 15853813.653 10 0 60504 54000.00000 0 -4188499.885 21320473.683 13374421.502 10 0 60504 54900.00000 0 -4728261.431 22705836.311 10635422.448 10 0 60504 55800.00000 0 -5033304.467 23803121.886 7689991.728 10 0 60504 56700.00000 0 -5139845.099 24567270.646 4595305.122 10 0 60504 57600.00000 0 -5092346.072 24963564.682 1411430.213 10 0 60504 58500.00000 0 -4941387.736 24969096.786 -1799838.487 10 0 60504 59400.00000 0 -4741284.733 24573763.923 -4976177.878 10 0 60504 60300.00000 0 -4547549.727 23780743.579 -8055944.774 10 0 60504 61200.00000 0 -4414311.763 22606432.812 -10979370.937 10 0 60504 62100.00000 0 -4391798.753 21079852.282 -13689721.384 10 0 60504 63000.00000 0 -4523990.796 19241539.948 -16134393.505 10 0 60504 63900.00000 0 -4846543.801 17141980.270 -18265935.754 10 0 60504 64800.00000 0 -5385071.501 14839634.254 -20042966.396 10 0 60504 65700.00000 0 -6153858.802 12398652.017 -21430974.824 10 0 60504 66600.00000 0 -7155061.392 9886362.742 -22402990.261 10 0 60504 67500.00000 0 -8378426.120 7370645.940 -22940105.217 10 0 60504 68400.00000 0 -9801545.008 4917292.629 -23031843.811 10 0 60504 69300.00000 0 -11390633.437 2587465.540 -22676367.908 10 0 60504 70200.00000 0 -13101801.221 435363.186 -21880517.020 10 0 60504 71100.00000 0 -14882764.647 -1493815.802 -20659680.881 10 0 60504 72000.00000 0 -16674929.006 -3165524.049 -19037506.682 10 0 60504 72900.00000 0 -18415755.481 -4557064.465 -17045446.025 10 0 60504 73800.00000 0 -20041314.072 -5658287.589 -14722149.662 10 0 60504 74700.00000 0 -21488916.024 -6471758.792 -12112721.097 10 0 60504 75600.00000 0 -22699715.548 -7012389.093 -9267842.999 10 0 60504 76500.00000 0 -23621171.458 -7306545.853 -6242792.990 10 0 60504 77400.00000 0 -24209264.898 -7390681.586 -3096367.885 10 0 60504 78300.00000 0 -24430379.298 -7309539.608 110262.549 10 0 60504 79200.00000 0 -24262762.776 -7114013.246 3314749.626 10 0 60504 80100.00000 0 -23697510.731 -6858750.126 6454783.631 10 0 60504 81000.00000 0 -22739026.642 -6599603.962 9469311.167 10 0 60504 81900.00000 0 -21404941.188 -6391042.738 12299727.514 10 0 60504 82800.00000 0 -19725492.764 -6283623.967 14891020.082 10 0 60504 83700.00000 0 -17742395.232 -6321644.741 17192840.237 10 0 60504 84600.00000 0 -15507240.334 -6541066.667 19160482.421 10 0 60504 85500.00000 0 -13079501.727 -6967803.977 20755751.470 99